owner,sensor,date,latitude,longitude,vertical_datum,direction_of_sea_water_velocity,sea_water_speed,upward_sea_water_velocity,qcFlag 
TABS,ioos:station:wmo:42044:1,2012-02-01T00:00:00Z,26.1914,-97.0507,2.0,287.7942017,6.217427121,-99999.0,'11133222,11111222,99999999' 
TABS,ioos:station:wmo:42044:1,2012-02-01T00:30:00Z,26.1914,-97.0507,2.0,126.4691491,0.286006993,-99999.0,'11133222,11111222,99999999' 
TABS,ioos:station:wmo:42044:1,2012-02-01T01:00:00Z,26.1914,-97.0507,2.0,324.3352923,5.23115666,-99999.0,'11133222,11111222,99999999' 
TABS,ioos:station:wmo:42044:1,2012-02-01T01:30:00Z,26.1914,-97.0507,2.0,340.391815,1.698499338,-99999.0,'11133222,11111222,99999999' 
TABS,ioos:station:wmo:42044:1,2012-02-01T02:00:00Z,26.1914,-97.0507,2.0,128.8297341,7.89461842,-99999.0,'11133222,11111222,99999999' 
TABS,ioos:station:wmo:42044:1,2012-02-01T02:30:00Z,26.1914,-97.0507,2.0,141.035481,5.581729123,-99999.0,'11133222,11111222,99999999' 
TABS,ioos:station:wmo:42044:1,2012-02-01T03:00:00Z,26.1914,-97.0507,2.0,216.3234493,4.406200177,-99999.0,'11133222,11111222,99999999' 
TABS,ioos:station:wmo:42044:1,2012-02-01T03:30:00Z,26.1914,-97.0507,2.0,281.4947261,8.531096061,-99999.0,'11133222,11111222,99999999' 
TABS,ioos:station:wmo:42044:1,2012-02-01T04:00:00Z,26.1914,-97.0507,2.0,121.9080323,6.867736163,-99999.0,'11133222,11111222,99999999' 
TABS,ioos:station:wmo:42044:1,2012-02-01T04:30:00Z,26.1914,-97.0507,2.0,281.174233,6.605210065,-99999.0,'11133222,11111222,99999999' 
TABS,ioos:station:wmo:42044:1,2012-02-01T05:00:00Z,26.1914,-97.0507,2.0,270.9407105,8.531148809,-99999.0,'11133222,11111222,99999999' 
TABS,ioos:station:wmo:42044:1,2012-02-01T05:30:00Z,26.1914,-97.0507,2.0,305.4102867,7.300369854,-99999.0,'11133222,11111222,99999999' 
TABS,ioos:station:wmo:42044:1,2012-02-01T06:00:00Z,26.1914,-97.0507,2.0,322.2629088,6.208711622,-99999.0,'11133222,11111222,99999999' 
TABS,ioos:station:wmo:42044:1,2012-02-01T06:30:00Z,26.1914,-97.0507,2.0,122.0053084,1.509436981,-99999.0,'11133222,11111222,99999999' 
TABS,ioos:station:wmo:42044:1,2012-02-01T07:00:00Z,26.1914,-97.0507,2.0,277.3153255,6.361776481,-99999.0,'11133222,11111222,99999999' 
TABS,ioos:station:wmo:42044:1,2012-02-01T07:30:00Z,26.1914,-97.0507,2.0,142.1248945,5.928912211,-99999.0,'11133222,11111222,99999999' 
TABS,ioos:station:wmo:42044:1,2012-02-01T08:00:00Z,26.1914,-97.0507,2.0,304.1915914,6.975621836,-99999.0,'11133222,11111222,99999999' 
TABS,ioos:station:wmo:42044:1,2012-02-01T08:30:00Z,26.1914,-97.0507,2.0,291.9463738,5.886560965,-99999.0,'11133222,11111222,99999999' 
TABS,ioos:station:wmo:42044:1,2012-02-01T09:00:00Z,26.1914,-97.0507,2.0,302.8926737,4.382556332,-99999.0,'11133222,11111222,99999999' 
TABS,ioos:station:wmo:42044:1,2012-02-01T09:30:00Z,26.1914,-97.0507,2.0,91.57366037,3.641373367,-99999.0,'11133222,11111222,99999999' 
TABS,ioos:station:wmo:42044:1,2012-02-01T10:00:00Z,26.1914,-97.0507,2.0,279.126063,4.476661703,-99999.0,'11133222,11111222,99999999' 
TABS,ioos:station:wmo:42044:1,2012-02-01T10:30:00Z,26.1914,-97.0507,2.0,287.8929326,6.346975658,-99999.0,'11133222,11111222,99999999' 
TABS,ioos:station:wmo:42044:1,2012-02-01T11:00:00Z,26.1914,-97.0507,2.0,209.5004452,4.366062299,-99999.0,'11133222,11111222,99999999' 
TABS,ioos:station:wmo:42044:1,2012-02-01T11:30:00Z,26.1914,-97.0507,2.0,264.3653256,4.481651481,-99999.0,'11133222,11111222,99999999' 
TABS,ioos:station:wmo:42044:1,2012-02-01T12:00:00Z,26.1914,-97.0507,2.0,250.4778945,3.501271198,-99999.0,'11133222,11111222,99999999' 
TABS,ioos:station:wmo:42044:1,2012-02-01T12:30:00Z,26.1914,-97.0507,2.0,282.4465217,3.758324095,-99999.0,'11133222,11111222,99999999' 
TABS,ioos:station:wmo:42044:1,2012-02-01T13:00:00Z,26.1914,-97.0507,2.0,251.1230198,4.512704289,-99999.0,'11133222,11111222,99999999' 
TABS,ioos:station:wmo:42044:1,2012-02-01T13:30:00Z,26.1914,-97.0507,2.0,74.24886317,3.241727934,-99999.0,'11133222,11111222,99999999' 
TABS,ioos:station:wmo:42044:1,2012-02-01T14:00:00Z,26.1914,-97.0507,2.0,88.69310171,2.630684322,-99999.0,'11133222,11111222,99999999' 
TABS,ioos:station:wmo:42044:1,2012-02-01T14:30:00Z,26.1914,-97.0507,2.0,70.3462219,4.013838562,-99999.0,'11133222,11111222,99999999' 
TABS,ioos:station:wmo:42044:1,2012-02-01T15:00:00Z,26.1914,-97.0507,2.0,39.40738291,2.39434751,-99999.0,'11133222,11111222,99999999' 
TABS,ioos:station:wmo:42044:1,2012-02-01T15:30:00Z,26.1914,-97.0507,2.0,58.61527009,3.03389189,-99999.0,'11133222,11111222,99999999' 
TABS,ioos:station:wmo:42044:1,2012-02-01T16:00:00Z,26.1914,-97.0507,2.0,72.60092494,2.274049252,-99999.0,'11133222,11111222,99999999' 
TABS,ioos:station:wmo:42044:1,2012-02-01T16:30:00Z,26.1914,-97.0507,2.0,31.89528792,4.95867926,-99999.0,'11133222,11111222,99999999' 
TABS,ioos:station:wmo:42044:1,2012-02-01T17:00:00Z,26.1914,-97.0507,2.0,3.548884134,2.584956479,-99999.0,'11133222,11111222,99999999' 
TABS,ioos:station:wmo:42044:1,2012-02-01T17:30:00Z,26.1914,-97.0507,2.0,206.6531977,2.89794755,-99999.0,'11133222,11111222,99999999' 
TABS,ioos:station:wmo:42044:1,2012-02-01T18:00:00Z,26.1914,-97.0507,2.0,185.7249521,3.909501247,-99999.0,'11133222,11111222,99999999' 
TABS,ioos:station:wmo:42044:1,2012-02-01T18:30:00Z,26.1914,-97.0507,2.0,112.067848,3.193994364,-99999.0,'11133222,11111222,99999999' 
TABS,ioos:station:wmo:42044:1,2012-02-01T19:00:00Z,26.1914,-97.0507,2.0,30.83797029,2.340961341,-99999.0,'11133222,11111222,99999999' 
TABS,ioos:station:wmo:42044:1,2012-02-01T19:30:00Z,26.1914,-97.0507,2.0,19.7738851,5.143267444,-99999.0,'11133222,11111222,99999999' 
TABS,ioos:station:wmo:42044:1,2012-02-01T20:00:00Z,26.1914,-97.0507,2.0,21.69172315,4.84294332,-99999.0,'11133222,11111222,99999999' 
TABS,ioos:station:wmo:42044:1,2012-02-01T20:30:00Z,26.1914,-97.0507,2.0,17.52573785,5.977457654,-99999.0,'11133222,11111222,99999999' 
TABS,ioos:station:wmo:42044:1,2012-02-01T21:00:00Z,26.1914,-97.0507,2.0,21.08700553,4.169184573,-99999.0,'11133222,11111222,99999999' 
TABS,ioos:station:wmo:42044:1,2012-02-01T21:30:00Z,26.1914,-97.0507,2.0,10.68929013,5.067938437,-99999.0,'11133222,11111222,99999999' 
TABS,ioos:station:wmo:42044:1,2012-02-01T22:00:00Z,26.1914,-97.0507,2.0,359.7151598,6.030074626,-99999.0,'11133222,11144222,99999999' 
TABS,ioos:station:wmo:42044:1,2012-02-01T22:30:00Z,26.1914,-97.0507,2.0,0.114801597,5.00001,-99999.0,'11133222,11111222,99999999' 
TABS,ioos:station:wmo:42044:1,2012-02-01T23:00:00Z,26.1914,-97.0507,2.0,353.2983615,4.198690272,-99999.0,'11133222,11111222,99999999' 
TABS,ioos:station:wmo:42044:1,2012-02-01T23:30:00Z,26.1914,-97.0507,2.0,324.8530571,6.653006839,-99999.0,'11133222,11111222,99999999' 
TABS,ioos:station:wmo:42044:1,2012-02-02T00:00:00Z,26.1914,-97.0507,2.0,319.6594876,6.441816514,-99999.0,'11133222,11111222,99999999' 
TABS,ioos:station:wmo:42044:1,2012-02-02T00:30:00Z,26.1914,-97.0507,2.0,327.1332756,4.440833255,-99999.0,'11133222,11111222,99999999' 
TABS,ioos:station:wmo:42044:1,2012-02-02T01:00:00Z,26.1914,-97.0507,2.0,342.0129179,6.476542287,-99999.0,'11133222,11111222,99999999' 
TABS,ioos:station:wmo:42044:1,2012-02-02T01:30:00Z,26.1914,-97.0507,2.0,340.3257536,7.455233061,-99999.0,'11133222,11111222,99999999' 
TABS,ioos:station:wmo:42044:1,2012-02-02T02:00:00Z,26.1914,-97.0507,2.0,337.4035178,7.625385236,-99999.0,'11133222,11111222,99999999' 
TABS,ioos:station:wmo:42044:1,2012-02-02T02:30:00Z,26.1914,-97.0507,2.0,343.7226822,9.240400424,-99999.0,'11133222,11111222,99999999' 
TABS,ioos:station:wmo:42044:1,2012-02-02T03:00:00Z,26.1914,-97.0507,2.0,334.5078422,9.317091821,-99999.0,'11133222,11111222,99999999' 
TABS,ioos:station:wmo:42044:1,2012-02-02T03:30:00Z,26.1914,-97.0507,2.0,337.0139207,6.734753151,-99999.0,'11133222,11111222,99999999' 
TABS,ioos:station:wmo:42044:1,2012-02-02T04:00:00Z,26.1914,-97.0507,2.0,355.8693639,10.82813003,-99999.0,'11111222,11111222,99999999' 
TABS,ioos:station:wmo:42044:1,2012-02-02T04:30:00Z,26.1914,-97.0507,2.0,352.3131666,10.24204081,-99999.0,'11111222,11111222,99999999' 
TABS,ioos:station:wmo:42044:1,2012-02-02T05:00:00Z,26.1914,-97.0507,2.0,341.4464343,9.145326675,-99999.0,'11133222,11111222,99999999' 
TABS,ioos:station:wmo:42044:1,2012-02-02T05:30:00Z,26.1914,-97.0507,2.0,348.0421015,8.494333405,-99999.0,'11133222,11111222,99999999' 
TABS,ioos:station:wmo:42044:1,2012-02-02T06:00:00Z,26.1914,-97.0507,2.0,348.1340535,7.878356428,-99999.0,'11133222,11111222,99999999' 
TABS,ioos:station:wmo:42044:1,2012-02-02T06:30:00Z,26.1914,-97.0507,2.0,349.3141435,9.006186762,-99999.0,'11133222,11111222,99999999' 
TABS,ioos:station:wmo:42044:1,2012-02-02T07:00:00Z,26.1914,-97.0507,2.0,345.0448166,9.22239123,-99999.0,'11133222,11111222,99999999' 
TABS,ioos:station:wmo:42044:1,2012-02-02T07:30:00Z,26.1914,-97.0507,2.0,332.6062426,11.12783896,-99999.0,'11111222,11111222,99999999' 
TABS,ioos:station:wmo:42044:1,2012-02-02T08:00:00Z,26.1914,-97.0507,2.0,344.5419973,7.916375433,-99999.0,'11133222,11111222,99999999' 
TABS,ioos:station:wmo:42044:1,2012-02-02T08:30:00Z,26.1914,-97.0507,2.0,349.0153985,10.02365702,-99999.0,'11111222,11111222,99999999' 
TABS,ioos:station:wmo:42044:1,2012-02-02T09:00:00Z,26.1914,-97.0507,2.0,342.8708971,7.910910188,-99999.0,'11133222,11111222,99999999' 
TABS,ioos:station:wmo:42044:1,2012-02-02T09:30:00Z,26.1914,-97.0507,2.0,357.950087,8.665546723,-99999.0,'11133222,11111222,99999999' 
TABS,ioos:station:wmo:42044:1,2012-02-02T10:00:00Z,26.1914,-97.0507,2.0,353.5822343,8.946066175,-99999.0,'11133222,11111222,99999999' 
TABS,ioos:station:wmo:42044:1,2012-02-02T10:30:00Z,26.1914,-97.0507,2.0,338.1844741,7.399959459,-99999.0,'11133222,11111222,99999999' 
TABS,ioos:station:wmo:42044:1,2012-02-02T11:00:00Z,26.1914,-97.0507,2.0,356.0432059,6.665890788,-99999.0,'11133222,11111222,99999999' 
TABS,ioos:station:wmo:42044:1,2012-02-02T11:30:00Z,26.1914,-97.0507,2.0,0.358303581,6.400124999,-99999.0,'11133222,11111222,99999999' 
TABS,ioos:station:wmo:42044:1,2012-02-02T12:00:00Z,26.1914,-97.0507,2.0,355.7912354,6.948740893,-99999.0,'11133222,11111222,99999999' 
TABS,ioos:station:wmo:42044:1,2012-02-02T12:30:00Z,26.1914,-97.0507,2.0,7.371641511,5.767668506,-99999.0,'11133222,11111222,99999999' 
TABS,ioos:station:wmo:42044:1,2012-02-02T13:00:00Z,26.1914,-97.0507,2.0,348.9660273,4.075340477,-99999.0,'11133222,11111222,99999999' 
TABS,ioos:station:wmo:42044:1,2012-02-02T13:30:00Z,26.1914,-97.0507,2.0,348.9543378,5.532494916,-99999.0,'11133222,11111222,99999999' 
TABS,ioos:station:wmo:42044:1,2012-02-02T14:00:00Z,26.1914,-97.0507,2.0,335.0091437,5.373062441,-99999.0,'11133222,11111222,99999999' 
TABS,ioos:station:wmo:42044:1,2012-02-02T14:30:00Z,26.1914,-97.0507,2.0,333.0624855,4.812120115,-99999.0,'11133222,11111222,99999999' 
TABS,ioos:station:wmo:42044:1,2012-02-02T15:00:00Z,26.1914,-97.0507,2.0,358.7860337,5.191165572,-99999.0,'11133222,11111222,99999999' 
TABS,ioos:station:wmo:42044:1,2012-02-02T15:30:00Z,26.1914,-97.0507,2.0,340.1967271,4.634058696,-99999.0,'11133222,11111222,99999999' 
TABS,ioos:station:wmo:42044:1,2012-02-02T16:00:00Z,26.1914,-97.0507,2.0,342.497442,2.526994262,-99999.0,'11133222,11111222,99999999' 
TABS,ioos:station:wmo:42044:1,2012-02-02T16:30:00Z,26.1914,-97.0507,2.0,347.1714576,3.107571399,-99999.0,'11133222,11111222,99999999' 
TABS,ioos:station:wmo:42044:1,2012-02-02T17:00:00Z,26.1914,-97.0507,2.0,348.7171157,4.191002267,-99999.0,'11133222,11111222,99999999' 
TABS,ioos:station:wmo:42044:1,2012-02-02T17:30:00Z,26.1914,-97.0507,2.0,13.16679078,3.995021902,-99999.0,'11133222,11111222,99999999' 
TABS,ioos:station:wmo:42044:1,2012-02-02T18:00:00Z,26.1914,-97.0507,2.0,51.2591269,4.41035146,-99999.0,'11133222,11111222,99999999' 
TABS,ioos:station:wmo:42044:1,2012-02-02T18:30:00Z,26.1914,-97.0507,2.0,41.85201649,2.83270189,-99999.0,'11133222,11111222,99999999' 
TABS,ioos:station:wmo:42044:1,2012-02-02T19:00:00Z,26.1914,-97.0507,2.0,72.42339181,3.377691519,-99999.0,'11133222,11111222,99999999' 
TABS,ioos:station:wmo:42044:1,2012-02-02T19:30:00Z,26.1914,-97.0507,2.0,143.9623018,4.130435812,-99999.0,'11133222,11111222,99999999' 
TABS,ioos:station:wmo:42044:1,2012-02-02T20:00:00Z,26.1914,-97.0507,2.0,0.454928257,2.520079364,-99999.0,'11133222,11111222,99999999' 
TABS,ioos:station:wmo:42044:1,2012-02-02T20:30:00Z,26.1914,-97.0507,2.0,52.47825822,2.988193434,-99999.0,'11133222,11111222,99999999' 
TABS,ioos:station:wmo:42044:1,2012-02-02T21:00:00Z,26.1914,-97.0507,2.0,57.38706303,3.098548047,-99999.0,'11133222,11111222,99999999' 
TABS,ioos:station:wmo:42044:1,2012-02-02T21:30:00Z,26.1914,-97.0507,2.0,35.58971904,3.848960899,-99999.0,'11133222,11111222,99999999' 
TABS,ioos:station:wmo:42044:1,2012-02-02T22:00:00Z,26.1914,-97.0507,2.0,164.9707499,3.779272417,-99999.0,'11133222,11111222,99999999' 
TABS,ioos:station:wmo:42044:1,2012-02-02T22:30:00Z,26.1914,-97.0507,2.0,71.10795788,2.378108492,-99999.0,'11133222,11111222,99999999' 
TABS,ioos:station:wmo:42044:1,2012-02-02T23:00:00Z,26.1914,-97.0507,2.0,341.0569917,4.990270534,-99999.0,'11133222,11111222,99999999' 
TABS,ioos:station:wmo:42044:1,2012-02-02T23:30:00Z,26.1914,-97.0507,2.0,346.5861393,4.914061457,-99999.0,'11133222,11111222,99999999' 
TABS,ioos:station:wmo:42044:1,2012-02-03T00:00:00Z,26.1914,-97.0507,2.0,349.6143476,3.161803283,-99999.0,'11133222,11111222,99999999' 
TABS,ioos:station:wmo:42044:1,2012-02-03T00:30:00Z,26.1914,-97.0507,2.0,334.4278684,1.807014112,-99999.0,'11133222,11111222,99999999' 
TABS,ioos:station:wmo:42044:1,2012-02-03T01:00:00Z,26.1914,-97.0507,2.0,7.953273832,2.746415846,-99999.0,'11133222,11111222,99999999' 
TABS,ioos:station:wmo:42044:1,2012-02-03T01:30:00Z,26.1914,-97.0507,2.0,346.2394575,2.522399651,-99999.0,'11133222,11111222,99999999' 
TABS,ioos:station:wmo:42044:1,2012-02-03T02:00:00Z,26.1914,-97.0507,2.0,25.45223393,4.374574265,-99999.0,'11133222,11111222,99999999' 
TABS,ioos:station:wmo:42044:1,2012-02-03T02:30:00Z,26.1914,-97.0507,2.0,304.3191432,4.044007913,-99999.0,'11133222,11111222,99999999' 
TABS,ioos:station:wmo:42044:1,2012-02-03T03:00:00Z,26.1914,-97.0507,2.0,326.883924,4.154912755,-99999.0,'11133222,11111222,99999999' 
TABS,ioos:station:wmo:42044:1,2012-02-03T03:30:00Z,26.1914,-97.0507,2.0,328.8277654,5.177576653,-99999.0,'11133222,11111222,99999999' 
TABS,ioos:station:wmo:42044:1,2012-02-03T04:00:00Z,26.1914,-97.0507,2.0,312.0762915,6.23773196,-99999.0,'11133222,11111222,99999999' 
TABS,ioos:station:wmo:42044:1,2012-02-03T04:30:00Z,26.1914,-97.0507,2.0,359.8367426,7.010028531,-99999.0,'11133222,11144222,99999999' 
TABS,ioos:station:wmo:42044:1,2012-02-03T05:00:00Z,26.1914,-97.0507,2.0,344.1044048,6.352928459,-99999.0,'11133222,11111222,99999999' 
TABS,ioos:station:wmo:42044:1,2012-02-03T05:30:00Z,26.1914,-97.0507,2.0,338.4162917,7.828971835,-99999.0,'11133222,11111222,99999999' 
TABS,ioos:station:wmo:42044:1,2012-02-03T06:00:00Z,26.1914,-97.0507,2.0,2.973281333,11.37531098,-99999.0,'11111222,11111222,99999999' 
TABS,ioos:station:wmo:42044:1,2012-02-03T06:30:00Z,26.1914,-97.0507,2.0,2.696351539,10.84200166,-99999.0,'11111222,11111222,99999999' 
TABS,ioos:station:wmo:42044:1,2012-02-03T07:00:00Z,26.1914,-97.0507,2.0,7.808506683,9.568719873,-99999.0,'11133222,11111222,99999999' 
TABS,ioos:station:wmo:42044:1,2012-02-03T07:30:00Z,26.1914,-97.0507,2.0,351.7218212,8.195395048,-99999.0,'11133222,11111222,99999999' 
TABS,ioos:station:wmo:42044:1,2012-02-03T08:00:00Z,26.1914,-97.0507,2.0,318.1085553,8.476538208,-99999.0,'11133222,11111222,99999999' 
TABS,ioos:station:wmo:42044:1,2012-02-03T08:30:00Z,26.1914,-97.0507,2.0,356.3016222,10.23130979,-99999.0,'11111222,11111222,99999999' 
TABS,ioos:station:wmo:42044:1,2012-02-03T09:00:00Z,26.1914,-97.0507,2.0,359.7604811,9.560083682,-99999.0,'11133222,11144222,99999999' 
TABS,ioos:station:wmo:42044:1,2012-02-03T09:30:00Z,26.1914,-97.0507,2.0,14.4808777,6.878517282,-99999.0,'11133222,11111222,99999999' 
TABS,ioos:station:wmo:42044:1,2012-02-03T10:00:00Z,26.1914,-97.0507,2.0,12.41691508,7.208612904,-99999.0,'11133222,11111222,99999999' 
TABS,ioos:station:wmo:42044:1,2012-02-03T10:30:00Z,26.1914,-97.0507,2.0,348.1222359,8.307887818,-99999.0,'11133222,11111222,99999999' 
TABS,ioos:station:wmo:42044:1,2012-02-03T11:00:00Z,26.1914,-97.0507,2.0,356.4435923,7.253971326,-99999.0,'11133222,11111222,99999999' 
TABS,ioos:station:wmo:42044:1,2012-02-03T11:30:00Z,26.1914,-97.0507,2.0,340.7271127,7.99825606,-99999.0,'11133222,11111222,99999999' 
TABS,ioos:station:wmo:42044:1,2012-02-03T12:00:00Z,26.1914,-97.0507,2.0,353.157453,7.805600553,-99999.0,'11133222,11111222,99999999' 
TABS,ioos:station:wmo:42044:1,2012-02-03T12:30:00Z,26.1914,-97.0507,2.0,342.0338335,5.414000369,-99999.0,'11133222,11111222,99999999' 
TABS,ioos:station:wmo:42044:1,2012-02-03T13:00:00Z,26.1914,-97.0507,2.0,11.32463274,7.740704102,-99999.0,'11133222,11111222,99999999' 
TABS,ioos:station:wmo:42044:1,2012-02-03T13:30:00Z,26.1914,-97.0507,2.0,34.66742888,3.902883549,-99999.0,'11133222,11111222,99999999' 
TABS,ioos:station:wmo:42044:1,2012-02-03T14:00:00Z,26.1914,-97.0507,2.0,33.2274691,7.555263066,-99999.0,'11133222,11111222,99999999' 
TABS,ioos:station:wmo:42044:1,2012-02-03T14:30:00Z,26.1914,-97.0507,2.0,16.06103445,9.542457755,-99999.0,'11133222,11111222,99999999' 
TABS,ioos:station:wmo:42044:1,2012-02-03T15:00:00Z,26.1914,-97.0507,2.0,23.15617939,7.069540296,-99999.0,'11133222,11111222,99999999' 
TABS,ioos:station:wmo:42044:1,2012-02-03T15:30:00Z,26.1914,-97.0507,2.0,45.60228954,9.419182555,-99999.0,'11133222,11111222,99999999' 
TABS,ioos:station:wmo:42044:1,2012-02-03T16:00:00Z,26.1914,-97.0507,2.0,10.84049056,9.092249447,-99999.0,'11133222,11111222,99999999' 
TABS,ioos:station:wmo:42044:1,2012-02-03T16:30:00Z,26.1914,-97.0507,2.0,15.31655767,7.382201569,-99999.0,'11133222,11111222,99999999' 
TABS,ioos:station:wmo:42044:1,2012-02-03T17:00:00Z,26.1914,-97.0507,2.0,26.15448508,9.982063915,-99999.0,'11133222,11111222,99999999' 
TABS,ioos:station:wmo:42044:1,2012-02-03T17:30:00Z,26.1914,-97.0507,2.0,73.25031903,9.785157127,-99999.0,'11133222,11111222,99999999' 
TABS,ioos:station:wmo:42044:1,2012-02-03T18:00:00Z,26.1914,-97.0507,2.0,24.78027013,8.040329595,-99999.0,'11133222,11111222,99999999' 
TABS,ioos:station:wmo:42044:1,2012-02-03T18:30:00Z,26.1914,-97.0507,2.0,14.18731222,6.446619269,-99999.0,'11133222,11111222,99999999' 
TABS,ioos:station:wmo:42044:1,2012-02-03T19:00:00Z,26.1914,-97.0507,2.0,165.5677604,4.212944339,-99999.0,'11133222,11111222,99999999' 
TABS,ioos:station:wmo:42044:1,2012-02-03T19:30:00Z,26.1914,-97.0507,2.0,28.87632556,4.990490958,-99999.0,'11133222,11111222,99999999' 
TABS,ioos:station:wmo:42044:1,2012-02-03T20:00:00Z,26.1914,-97.0507,2.0,335.5487927,6.30552932,-99999.0,'11133222,11111222,99999999' 
TABS,ioos:station:wmo:42044:1,2012-02-03T20:30:00Z,26.1914,-97.0507,2.0,334.3314701,3.716799699,-99999.0,'11133222,11111222,99999999' 
TABS,ioos:station:wmo:42044:1,2012-02-03T21:00:00Z,26.1914,-97.0507,2.0,340.7875836,4.193566501,-99999.0,'11133222,11111222,99999999' 
TABS,ioos:station:wmo:42044:1,2012-02-03T21:30:00Z,26.1914,-97.0507,2.0,310.2573919,4.874515361,-99999.0,'11133222,11111222,99999999' 
TABS,ioos:station:wmo:42044:1,2012-02-03T22:00:00Z,26.1914,-97.0507,2.0,296.9863071,4.870287466,-99999.0,'11133222,11111222,99999999' 
TABS,ioos:station:wmo:42044:1,2012-02-03T22:30:00Z,26.1914,-97.0507,2.0,310.9513928,5.507966957,-99999.0,'11133222,11111222,99999999' 
TABS,ioos:station:wmo:42044:1,2012-02-03T23:00:00Z,26.1914,-97.0507,2.0,340.8904337,5.101107723,-99999.0,'11133222,11111222,99999999' 
TABS,ioos:station:wmo:42044:1,2012-02-03T23:30:00Z,26.1914,-97.0507,2.0,333.7370015,5.943551127,-99999.0,'11133222,11111222,99999999' 
TABS,ioos:station:wmo:42044:1,2012-02-04T00:00:00Z,26.1914,-97.0507,2.0,307.4007324,5.400231477,-99999.0,'11133222,11111222,99999999' 
TABS,ioos:station:wmo:42044:1,2012-02-04T00:30:00Z,26.1914,-97.0507,2.0,353.2830021,4.531103618,-99999.0,'11133222,11111222,99999999' 
TABS,ioos:station:wmo:42044:1,2012-02-04T01:00:00Z,26.1914,-97.0507,2.0,339.5981959,4.790511455,-99999.0,'11133222,11111222,99999999' 
TABS,ioos:station:wmo:42044:1,2012-02-04T01:30:00Z,26.1914,-97.0507,2.0,52.5300144,2.482136177,-99999.0,'11133222,11111222,99999999' 
TABS,ioos:station:wmo:42044:1,2012-02-04T02:00:00Z,26.1914,-97.0507,2.0,27.50438826,1.364184738,-99999.0,'11133222,11111222,99999999' 
TABS,ioos:station:wmo:42044:1,2012-02-04T02:30:00Z,26.1914,-97.0507,2.0,128.2337358,0.840238062,-99999.0,'11133222,11111222,99999999' 
TABS,ioos:station:wmo:42044:1,2012-02-04T03:00:00Z,26.1914,-97.0507,2.0,58.56568988,5.637348668,-99999.0,'11133222,11111222,99999999' 
TABS,ioos:station:wmo:42044:1,2012-02-04T03:30:00Z,26.1914,-97.0507,2.0,337.5602733,4.165405142,-99999.0,'11133222,11111222,99999999' 
TABS,ioos:station:wmo:42044:1,2012-02-04T04:00:00Z,26.1914,-97.0507,2.0,14.06106439,5.638953804,-99999.0,'11133222,11111222,99999999' 
TABS,ioos:station:wmo:42044:1,2012-02-04T04:30:00Z,26.1914,-97.0507,2.0,11.88524466,8.205912503,-99999.0,'11133222,11111222,99999999' 
TABS,ioos:station:wmo:42044:1,2012-02-04T05:00:00Z,26.1914,-97.0507,2.0,36.13119754,8.530709232,-99999.0,'11133222,11111222,99999999' 
TABS,ioos:station:wmo:42044:1,2012-02-04T05:30:00Z,26.1914,-97.0507,2.0,184.7634201,5.900381344,-99999.0,'11133222,11111222,99999999' 
TABS,ioos:station:wmo:42044:1,2012-02-04T06:00:00Z,26.1914,-97.0507,2.0,18.38688753,7.513574382,-99999.0,'11133222,11111222,99999999' 
TABS,ioos:station:wmo:42044:1,2012-02-04T06:30:00Z,26.1914,-97.0507,2.0,36.40003482,7.802262492,-99999.0,'11133222,11111222,99999999' 
TABS,ioos:station:wmo:42044:1,2012-02-04T07:00:00Z,26.1914,-97.0507,2.0,54.20048418,4.068709869,-99999.0,'11133222,11111222,99999999' 
TABS,ioos:station:wmo:42044:1,2012-02-04T07:30:00Z,26.1914,-97.0507,2.0,30.2077523,6.757632722,-99999.0,'11133222,11111222,99999999' 
TABS,ioos:station:wmo:42044:1,2012-02-04T08:00:00Z,26.1914,-97.0507,2.0,85.47690391,4.945401905,-99999.0,'11133222,11111222,99999999' 
TABS,ioos:station:wmo:42044:1,2012-02-04T08:30:00Z,26.1914,-97.0507,2.0,56.17105685,3.430830803,-99999.0,'11133222,11111222,99999999' 
TABS,ioos:station:wmo:42044:1,2012-02-04T09:00:00Z,26.1914,-97.0507,2.0,43.13865195,5.659840987,-99999.0,'11133222,11111222,99999999' 
TABS,ioos:station:wmo:42044:1,2012-02-04T09:30:00Z,26.1914,-97.0507,2.0,32.71948991,8.676756306,-99999.0,'11133222,11111222,99999999' 
TABS,ioos:station:wmo:42044:1,2012-02-04T10:00:00Z,26.1914,-97.0507,2.0,39.00692774,6.704662557,-99999.0,'11133222,11111222,99999999' 
TABS,ioos:station:wmo:42044:1,2012-02-04T10:30:00Z,26.1914,-97.0507,2.0,34.26601545,7.175409396,-99999.0,'11133222,11111222,99999999' 
TABS,ioos:station:wmo:42044:1,2012-02-04T11:00:00Z,26.1914,-97.0507,2.0,23.6543685,7.925906888,-99999.0,'11133222,11111222,99999999' 
TABS,ioos:station:wmo:42044:1,2012-02-04T11:30:00Z,26.1914,-97.0507,2.0,11.10033932,8.570332549,-99999.0,'11133222,11111222,99999999' 
TABS,ioos:station:wmo:42044:1,2012-02-04T12:00:00Z,26.1914,-97.0507,2.0,16.82158101,7.636766331,-99999.0,'11133222,11111222,99999999' 
TABS,ioos:station:wmo:42044:1,2012-02-04T12:30:00Z,26.1914,-97.0507,2.0,13.69605494,8.573785628,-99999.0,'11133222,11111222,99999999' 
TABS,ioos:station:wmo:42044:1,2012-02-04T13:00:00Z,26.1914,-97.0507,2.0,13.31988173,9.115201589,-99999.0,'11133222,11111222,99999999' 
TABS,ioos:station:wmo:42044:1,2012-02-04T13:30:00Z,26.1914,-97.0507,2.0,22.2704263,9.077092045,-99999.0,'11133222,11111222,99999999' 
TABS,ioos:station:wmo:42044:1,2012-02-04T14:00:00Z,26.1914,-97.0507,2.0,23.22346798,9.129737127,-99999.0,'11133222,11111222,99999999' 
TABS,ioos:station:wmo:42044:1,2012-02-04T14:30:00Z,26.1914,-97.0507,2.0,53.92329678,8.524816714,-99999.0,'11133222,11111222,99999999' 
TABS,ioos:station:wmo:42044:1,2012-02-04T15:00:00Z,26.1914,-97.0507,2.0,50.78309501,8.351005927,-99999.0,'11133222,11111222,99999999' 
TABS,ioos:station:wmo:42044:1,2012-02-04T15:30:00Z,26.1914,-97.0507,2.0,59.47036549,7.697077367,-99999.0,'11133222,11111222,99999999' 
TABS,ioos:station:wmo:42044:1,2012-02-04T16:00:00Z,26.1914,-97.0507,2.0,51.80059623,9.136459927,-99999.0,'11133222,11111222,99999999' 